Location: Newark
(21.1200°N, 73.4000°E)
Time: 18:42:29
(UTC+00:00)

Courier 1B Rocket - Pass Details

Date: 18 January 2020
Orbit: 920 x 1202 km, 28.2° (Epoch: 25 February)

Event Time Altitude Azimuth Distance (km) Brightness Sun altitude
Rises 10:39:34 0° 275° (W) 3,645 8.7 25.2°
Reaches altitude 10° 10:42:23 10° 282° (WNW) 2,666 8.0 24.7°
Maximum altitude 10:48:28 46° 354° (N) 1,227 5.6 23.5°
Drops below altitude 10° 10:54:25 10° 67° (ENE) 2,603 6.8 22.4°
Sets 10:57:08 0° 73° (ENE) 3,551 7.4 21.9°
